Location: Sulphur Springs (historical)
(38.1246°N, 122.1900°W)
Time: 07:39:42
(UTC+00:00)

PSLV R/B - Pass Details

Date: 29 October 2020
Orbit: 567 x 599 km, 98.2° (Epoch: 02 December)

Event Time Altitude Azimuth Distance (km) Brightness Sun altitude
Rises 13:55:10 0° 181° (S) 2,820 7.6 -7.9°
Reaches altitude 10° 13:57:24 10° 188° (S) 1,926 6.7 -7.5°
Maximum altitude 14:01:24 44° 261° (W) 838 4.3 -6.7°
Drops below altitude 10° 14:05:27 10° 333° (NNW) 1,946 6.2 -5.9°
Sets 14:07:43 0° 340° (NNW) 2,853 7.1 -5.5°
